Orbital Elements at Epoch 2459000.5 (2020-May-31.0) TDB
Reference: JPL 9 (heliocentric ecliptic J2000)
Element | Value | Uncertainty (1-sigma) | Units |
e | .0240398013434384 | 1.0325e-07 | |
a | 3.134898776224915 | 5.2272e-08 | au |
q | 3.059536432412679 | 3.1478e-07 | au |
i | 10.29032128627448 | 1.0505e-05 | deg |
node | 210.2336438135279 | 3.7727e-05 | deg |
peri | 155.9210572167985 | 0.00015246 | deg |
M | 353.7871247201667 | 0.0001444 | deg |
tp | 2459035.488380838228 (2020-Jul-04.98838084) | 0.00081301 | TDB |
period | 2027.373242570565 5.55 | 5.0708e-05 1.388e-07 | d yr |
n | .1775696711590934 | 4.4413e-09 | deg/d |
Q | 3.21026112003715 | 5.3529e-08 | au |
|
| | Orbit Determination Parameters
Additional Information
|